This is the latest recevied weather packets stored in our database for station/object AI5BL. If no packets are shown the sender has not sent any weather packets the latest 10 day(s).
| Time | Temp. | Humidity | Pressure | Rain* | Wind** | Luminosity | Snow |
|---|---|---|---|---|---|---|---|
| 1778111262 | 24.44° C | 97% | 1012.6 hPa | 0 mm | - | 2 W/m² | - |
| 1778110960 | 24.44° C | 97% | 1013 hPa | 0 mm | - | 2 W/m² | - |
| 1778110657 | 24.44° C | 97% | 1012.8 hPa | 0 mm | - | 3 W/m² | - |
| 1778110353 | 24.44° C | 96% | 1012.1 hPa | 0 mm | - | 4 W/m² | - |
| 1778110050 | 24.44° C | 96% | 1011.8 hPa | 0 mm | - | 6 W/m² | - |
| 1778109750 | 24.44° C | 96% | 1011.9 hPa | 0 mm | - | 7 W/m² | - |
| 1778109448 | 24.44° C | 97% | 1012.5 hPa | 0 mm | - | 7 W/m² | - |
| 1778109146 | 24.44° C | 96% | 1012.5 hPa | 0 mm | - | 7 W/m² | - |
| 1778108842 | 24.44° C | 96% | 1012.4 hPa | 0 mm | - | 5 W/m² | - |
| 1778108539 | 24.44° C | 96% | 1012.6 hPa | 0 mm | - | 5 W/m² | - |
| 1778108235 | 24.44° C | 96% | 1012.2 hPa | 0 mm | - | 7 W/m² | - |
| 1778107933 | 25° C | 96% | 1012.3 hPa | 0 mm | - | 8 W/m² | - |
| 1778107629 | 25° C | 96% | 1012.4 hPa | 0 mm | - | 11 W/m² | - |
| 1778107327 | 25° C | 96% | 1012.3 hPa | 0 mm | - | 18 W/m² | - |
| 1778107022 | 25° C | 96% | 1012.4 hPa | 0 mm | - | 30 W/m² | - |
| 1778106718 | 25° C | 96% | 1012.3 hPa | 0 mm | - | 27 W/m² | - |
| 1778106415 | 25° C | 96% | 1012.4 hPa | 0 mm | - | 32 W/m² | - |
| 1778106111 | 25° C | 95% | 1012.7 hPa | 0 mm | - | 38 W/m² | - |
| 1778105809 | 25.56° C | 94% | 1012.7 hPa | 0 mm | - | 42 W/m² | - |
| 1778105507 | 25.56° C | 94% | 1012.8 hPa | 0 mm | - | 57 W/m² | - |
| 1778105204 | 25.56° C | 95% | 1013.1 hPa | 0 mm | - | 73 W/m² | - |
| 1778104898 | 25.56° C | 95% | 1013.1 hPa | 0 mm | - | 95 W/m² | - |
| 1778104595 | 25.56° C | 94% | 1013 hPa | 0 mm | - | 77 W/m² | - |
| 1778104291 | 25.56° C | 95% | 1013.2 hPa | 0 mm | - | 125 W/m² | - |
| 1778103988 | 25.56° C | 96% | 1013.3 hPa | 0 mm | - | 120 W/m² | - |
* Rain latest hour (hover to see other rain measurements)
** Current wind speed in m/s (hover to see current wind gust speed)